Location: PACMO
(41.3967°N, 90.3760°W)
Time: 19:12:45
(UTC-05:00)

NOAA 19 - Visible Passes

Search period start: 26 June 2017 00:00
Search period end: 06 July 2017 00:00
Orbit: 842 x 861 km, 99.1° (Epoch: 26 June)

Date Brightness Start Highest point End Pass type
(mag) Time Alt. Az. Time Alt. Az. Time Alt. Az.
26 Jun 7.2 03:41:52 10° NE 03:46:18 24° E 03:50:42 10° SSE visible
27 Jun 7.5 03:30:50 10° NE 03:34:42 19° E 03:38:32 10° SE visible
28 Jun 7.6 03:20:01 10° ENE 03:23:04 15° E 03:26:06 10° SE visible
29 Jun 7.8 03:09:45 10° ENE 03:11:25 11° E 03:13:05 10° ESE visible
29 Jun 5.3 04:47:15 10° NNE 04:52:49 90° W 04:58:20 10° SSW visible
30 Jun 5.5 04:35:47 10° NNE 04:41:20 73° ESE 04:46:49 10° S visible
01 Jul 5.8 04:24:21 10° NNE 04:29:49 57° E 04:35:13 10° S visible
02 Jul 6.2 04:12:59 10° NNE 04:18:18 45° E 04:23:31 10° S visible
03 Jul 6.6 04:01:41 10° NNE 04:06:44 36° E 04:11:44 10° SSE visible
04 Jul 6.9 03:50:27 10° NE 03:55:10 28° E 03:59:50 10° SSE visible
05 Jul 7.2 03:39:19 10° NE 03:43:34 22° E 03:47:47 10° SE visible
